Regional Weather Roundup
Issued by NWS

Home | Current Version | Previous Version | Graphics & Text | Print | Product List | Glossary Off
Versions: 1 2 3 4 5 6 7 8 9 10 11 12 13 14 15 16 17 18 19 20 21 22 23 24 25 26 27 28 29 30 31 32 33 34 35 36 37 38 39 40 41 42 43 44 45 46 47 48 49 50

000
ASUS43 KTOP 310359
RWRKS

WEATHER ROUNDUP FOR KANSAS
NATIONAL WEATHER SERVICE GOODLAND KS
1100 PM CDT MON MAY 30 2016

NOTE:  "FAIR" INDICATES FEW OR NO CLOUDS BELOW 12,000 FEET WITH NO
SIGNIFICANT WEATHER AND/OR OBSTRUCTIONS TO VISIBILITY.

KSZ001>006-013>018-027>032-041>047-310500-
NORTHWEST KANSAS

CITY           SKY/WX    TMP DP  RH WIND       PRES   REMARKS
GOODLAND       CLOUDY    57  53  86 CALM      29.99R
HAYS           CLOUDY    66  55  68 SE8       29.91S
HILL CITY      LGT RAIN  60  57  89 N7        29.99R
RUSSELL        CLOUDY    68  61  78 S14       29.90R
$$

KSZ061>065-074>080-084>089-310500-
SOUTHWEST KANSAS

CITY           SKY/WX    TMP DP  RH WIND       PRES   REMARKS
DODGE CITY     CLOUDY    66  58  75 SE13      29.91R
ELKHART          N/A     66  60  81 SE10        N/A
GARDEN CITY    CLOUDY    69  52  54 NE26G35   29.94R
GREAT BEND     CLOUDY    70  57  64 S12       29.92R
LIBERAL        CLEAR     70  54  56 SE12      29.91R
$$

KSZ066>073-081>083-090>101-310500-
SOUTHEAST KANSAS

CITY           SKY/WX    TMP DP  RH WIND       PRES   REMARKS
CHANUTE        CLEAR     65  62  90 E5        29.96F
COFFEYVILLE    CLEAR     65  62  90 E5        29.95F
HUTCHINSON     CLOUDY    69  63  81 SE15      29.93R
MEDICINE LODGE   N/A     70  62  76 SE9G18    29.92R
NEWTON         CLEAR     64  57  77 SE9       29.98R
PARSONS        PTCLDY    67  63  87 CALM      29.96F
WICHITA INTL   PTCLDY    68  62  81 SE13      29.94R
WICHITA JABRA  CLEAR     66  61  84 SE9       29.95R
WINFIELD       CLEAR     66  61  84 SE9       29.97R
$$

KSZ007>012-019>026-033>040-048>060-102>105-310500-
NORTHEAST KANSAS

CITY           SKY/WX    TMP DP  RH WIND       PRES   REMARKS
CONCORDIA      CLOUDY    70  61  73 S15G23    29.91R
EMPORIA        CLEAR     65  60  84 SE8       29.97R
LAWRENCE       CLEAR     66  60  81 SE7       29.95F
MANHATTAN      CLEAR     70  62  76 S6        29.95R
OLATHE IND     CLEAR     64  62  93 SE7       29.97F
OLATHE EXE     CLEAR     63  59  87 S8        29.97F
SALINA         CLOUDY    70  62  76 SE12      29.93R
TOPEKA BILLARD CLEAR     69  59  70 S6        29.96R
TOPEKA FORBES  CLEAR     68  60  75 SE8       29.96R
$$




USA.gov is the U.S. government's official web portal to all federal, state and local government web resources and services.